sat.trackr.live / text

‹ back to catalog

STARLINK-34464

NORAD 64664 · 2025-139A

PAYLOAD ACTIVE UNKNOWN

§ Identity

Operator
Country
US
Launch date
2025-06-28
Launch site
AFETR
Launch vehicle
Mass (kg)
RCS (m²)

Purposes: comms

External: N2YO · Heavens-Above · Gunter

§ Orbital elements

Epoch: 2026-05-25T05:36:05.333184Z

Period
93.85 min
Inclination
53.1585°
Eccentricity
0.0001289
Mean motion
15.34400431 rev/d
Perigee alt
461.8 km
Apogee alt
463.6 km
Semi-major
6,840.8 km
B*
9.2463e-4
RAAN
130.7757°
Arg perigee
86.3263°
Mean anomaly
273.7887°
Rev number
5,201

§ Raw data

STARLINK-344641 64664U 25139A   26145.23339506  .00030994  00000+0  92463-3 0  99962 64664  53.1585 130.7757 0001289  86.3263 273.7887 15.34400431 52018

JSON: /api/v1/satellites/64664 · /tle

For live sub-satellite position, see the globe view (requires WebGL).

§ Visibility from observer

Set your observer location to see the next 7 days of passes ≥ 10°. The values pass through the URL so the page stays shareable.

No JS? Fill the form by hand. The geolocation button needs JavaScript.